iso_date,Year,Hour,Min,DOY,POS_DOY,Lat,Lon,BP,Ts,Ta,has_bp,has_ts,has_ta,BuoyID,Buoy_Type,Buoy_Owner,Logistics,Hemisphere
2021-11-23T16:00:02Z,2021,16,0,327.6667,327.6667,79.757,10.996,1019.6,1.72,-999.0,yes,yes,no,300234068341200,BD2GHI,AOML,ALLIANCE,North
2021-11-23T16:59:57Z,2021,17,0,327.7083,327.7083,79.757,10.996,1019.7,1.75,-999.0,yes,yes,no,300234068341200,BD2GHI,AOML,ALLIANCE,North
2021-11-23T18:00:00Z,2021,18,0,327.75,327.75,79.758,11.0,1019.8,1.69,-999.0,yes,yes,no,300234068341200,BD2GHI,AOML,ALLIANCE,North
2021-11-23T19:00:02Z,2021,19,0,327.7917,327.7917,79.757,11.0,1020.0,1.63,-999.0,yes,yes,no,300234068341200,BD2GHI,AOML,ALLIANCE,North
2021-11-23T19:59:57Z,2021,20,0,327.8333,327.8333,79.757,11.0,1020.2,1.53,-999.0,yes,yes,no,300234068341200,BD2GHI,AOML,ALLIANCE,North
2021-11-23T21:00:00Z,2021,21,0,327.875,327.875,79.756,10.993,1020.2,1.53,-999.0,yes,yes,no,300234068341200,BD2GHI,AOML,ALLIANCE,North
2021-11-23T22:00:02Z,2021,22,0,327.9167,327.9167,79.757,10.995,1019.7,1.52,-999.0,yes,yes,no,300234068341200,BD2GHI,AOML,ALLIANCE,North
2021-11-23T22:59:57Z,2021,23,0,327.9583,327.9583,79.758,10.996,1019.8,1.5,-999.0,yes,yes,no,300234068341200,BD2GHI,AOML,ALLIANCE,North
2021-11-24T00:00:00Z,2021,0,0,328.0,328.0,79.758,10.994,1020.4,1.45,-999.0,yes,yes,no,300234068341200,BD2GHI,AOML,ALLIANCE,North
2021-11-24T01:00:02Z,2021,1,0,328.0417,328.0417,79.757,10.996,1020.8,1.5,-999.0,yes,yes,no,300234068341200,BD2GHI,AOML,ALLIANCE,North
2021-11-24T01:59:57Z,2021,2,0,328.0833,328.0833,79.757,10.996,1020.6,1.52,-999.0,yes,yes,no,300234068341200,BD2GHI,AOML,ALLIANCE,North
2021-11-24T03:00:00Z,2021,3,0,328.125,328.125,79.757,10.996,1021.8,1.53,-999.0,yes,yes,no,300234068341200,BD2GHI,AOML,ALLIANCE,North
2021-11-24T04:00:02Z,2021,4,0,328.1667,328.1667,79.757,10.995,1021.6,1.49,-999.0,yes,yes,no,300234068341200,BD2GHI,AOML,ALLIANCE,North
2021-11-24T04:59:57Z,2021,5,0,328.2083,328.2083,79.757,10.995,1022.0,1.48,-999.0,yes,yes,no,300234068341200,BD2GHI,AOML,ALLIANCE,North
2021-11-24T06:00:00Z,2021,6,0,328.25,328.25,79.756,10.994,1022.1,1.48,-999.0,yes,yes,no,300234068341200,BD2GHI,AOML,ALLIANCE,North
2021-11-24T07:00:02Z,2021,7,0,328.2917,328.2917,79.757,10.997,1022.4,1.42,-999.0,yes,yes,no,300234068341200,BD2GHI,AOML,ALLIANCE,North
2021-11-24T07:59:57Z,2021,8,0,328.3333,328.3333,79.757,10.991,1022.3,1.37,-999.0,yes,yes,no,300234068341200,BD2GHI,AOML,ALLIANCE,North
2021-11-24T09:00:00Z,2021,9,0,328.375,328.375,79.757,10.996,1022.4,1.23,-999.0,yes,yes,no,300234068341200,BD2GHI,AOML,ALLIANCE,North
2021-11-24T10:00:02Z,2021,10,0,328.4167,328.4167,79.756,10.998,1022.0,1.0,-999.0,yes,yes,no,300234068341200,BD2GHI,AOML,ALLIANCE,North
2021-11-24T12:00:00Z,2021,12,0,328.5,328.5,79.757,10.997,1021.5,0.94,-999.0,yes,yes,no,300234068341200,BD2GHI,AOML,ALLIANCE,North
2021-11-24T13:00:02Z,2021,13,0,328.5417,328.5417,79.757,10.995,1020.2,1.08,-999.0,yes,yes,no,300234068341200,BD2GHI,AOML,ALLIANCE,North
2021-11-24T13:59:57Z,2021,14,0,328.5833,328.5833,79.757,10.995,1021.2,0.96,-999.0,yes,yes,no,300234068341200,BD2GHI,AOML,ALLIANCE,North
2021-11-24T15:00:00Z,2021,15,0,328.625,328.625,79.757,10.997,1018.2,0.78,-999.0,yes,yes,no,300234068341200,BD2GHI,AOML,ALLIANCE,North
2021-11-24T16:00:02Z,2021,16,0,328.6667,328.6667,79.757,10.999,1019.3,0.66,-999.0,yes,yes,no,300234068341200,BD2GHI,AOML,ALLIANCE,North
2021-11-24T17:00:57Z,2021,17,1,328.709,328.709,79.757,10.997,1018.8,0.68,-999.0,yes,yes,no,300234068341200,BD2GHI,AOML,ALLIANCE,North
2021-11-24T18:00:00Z,2021,18,0,328.75,328.75,79.757,10.997,1018.3,0.98,-999.0,yes,yes,no,300234068341200,BD2GHI,AOML,ALLIANCE,North
2021-11-24T19:00:02Z,2021,19,0,328.7917,328.7917,79.757,10.997,1017.9,1.05,-999.0,yes,yes,no,300234068341200,BD2GHI,AOML,ALLIANCE,North
2021-11-24T19:59:57Z,2021,20,0,328.8333,328.8333,79.758,11.006,1017.5,1.21,-999.0,yes,yes,no,300234068341200,BD2GHI,AOML,ALLIANCE,North
2021-11-24T21:01:00Z,2021,21,1,328.8757,328.8757,79.757,10.996,1017.2,1.35,-999.0,yes,yes,no,300234068341200,BD2GHI,AOML,ALLIANCE,North
2021-11-24T22:00:02Z,2021,22,0,328.9167,328.9167,79.757,10.996,1016.8,1.5,-999.0,yes,yes,no,300234068341200,BD2GHI,AOML,ALLIANCE,North
2021-11-24T22:59:57Z,2021,23,0,328.9583,328.9583,79.757,10.996,1016.2,1.54,-999.0,yes,yes,no,300234068341200,BD2GHI,AOML,ALLIANCE,North
2021-11-25T00:00:00Z,2021,0,0,329.0,329.0,79.757,10.996,1015.5,1.52,-999.0,yes,yes,no,300234068341200,BD2GHI,AOML,ALLIANCE,North
2021-11-25T01:00:02Z,2021,1,0,329.0417,329.0417,79.757,10.997,1014.9,1.49,-999.0,yes,yes,no,300234068341200,BD2GHI,AOML,ALLIANCE,North
2021-11-25T01:59:57Z,2021,2,0,329.0833,329.0833,79.757,10.996,1014.2,1.42,-999.0,yes,yes,no,300234068341200,BD2GHI,AOML,ALLIANCE,North
2021-11-25T03:00:00Z,2021,3,0,329.125,329.125,79.756,10.994,1013.4,1.24,-999.0,yes,yes,no,300234068341200,BD2GHI,AOML,ALLIANCE,North
2021-11-25T04:00:02Z,2021,4,0,329.1667,329.1667,79.756,10.995,1013.0,0.97,-999.0,yes,yes,no,300234068341200,BD2GHI,AOML,ALLIANCE,North
2021-11-25T04:59:57Z,2021,5,0,329.2083,329.2083,79.757,10.994,1012.4,1.18,-999.0,yes,yes,no,300234068341200,BD2GHI,AOML,ALLIANCE,North
2021-11-25T06:00:00Z,2021,6,0,329.25,329.25,79.757,11.002,1011.9,1.21,-999.0,yes,yes,no,300234068341200,BD2GHI,AOML,ALLIANCE,North
2021-11-25T07:00:02Z,2021,7,0,329.2917,329.2917,79.757,10.998,1011.3,0.62,-999.0,yes,yes,no,300234068341200,BD2GHI,AOML,ALLIANCE,North
2021-11-25T07:59:57Z,2021,8,0,329.3333,329.3333,79.757,10.997,1011.1,0.75,-999.0,yes,yes,no,300234068341200,BD2GHI,AOML,ALLIANCE,North
2021-11-25T09:00:00Z,2021,9,0,329.375,329.375,79.757,10.996,1010.7,0.66,-999.0,yes,yes,no,300234068341200,BD2GHI,AOML,ALLIANCE,North
2021-11-25T10:00:02Z,2021,10,0,329.4167,329.4167,79.757,10.998,1010.1,0.7,-999.0,yes,yes,no,300234068341200,BD2GHI,AOML,ALLIANCE,North
2021-11-25T12:00:00Z,2021,12,0,329.5,329.5,79.756,10.998,1008.7,0.72,-999.0,yes,yes,no,300234068341200,BD2GHI,AOML,ALLIANCE,North
2021-11-25T13:00:02Z,2021,13,0,329.5417,329.5417,79.757,10.997,1008.2,0.74,-999.0,yes,yes,no,300234068341200,BD2GHI,AOML,ALLIANCE,North
2021-11-25T13:59:57Z,2021,14,0,329.5833,329.5833,79.757,10.997,1007.6,0.84,-999.0,yes,yes,no,300234068341200,BD2GHI,AOML,ALLIANCE,North
2021-11-25T15:00:00Z,2021,15,0,329.625,329.625,79.757,11.002,1006.9,0.97,-999.0,yes,yes,no,300234068341200,BD2GHI,AOML,ALLIANCE,North
2021-11-25T18:00:00Z,2021,18,0,329.75,329.75,79.747,11.015,1005.2,1.43,-999.0,yes,yes,no,300234068341200,BD2GHI,AOML,ALLIANCE,North
2021-11-25T19:00:02Z,2021,19,0,329.7917,329.7917,79.741,11.021,1005.0,1.39,-999.0,yes,yes,no,300234068341200,BD2GHI,AOML,ALLIANCE,North
2021-11-25T19:59:57Z,2021,20,0,329.8333,329.8333,79.736,11.018,1004.6,1.38,-999.0,yes,yes,no,300234068341200,BD2GHI,AOML,ALLIANCE,North
2021-11-25T21:00:00Z,2021,21,0,329.875,329.875,79.731,11.013,1004.3,1.39,-999.0,yes,yes,no,300234068341200,BD2GHI,AOML,ALLIANCE,North
2021-11-25T22:00:02Z,2021,22,0,329.9167,329.9167,79.73,11.007,1004.2,1.34,-999.0,yes,yes,no,300234068341200,BD2GHI,AOML,ALLIANCE,North
2021-11-25T22:59:57Z,2021,23,0,329.9583,329.9583,79.73,11.004,1003.9,1.35,-999.0,yes,yes,no,300234068341200,BD2GHI,AOML,ALLIANCE,North
2021-11-26T00:00:00Z,2021,0,0,330.0,330.0,79.73,11.006,1003.6,1.35,-999.0,yes,yes,no,300234068341200,BD2GHI,AOML,ALLIANCE,North
2021-11-26T01:00:02Z,2021,1,0,330.0417,330.0417,79.729,11.008,1003.4,1.33,-999.0,yes,yes,no,300234068341200,BD2GHI,AOML,ALLIANCE,North
2021-11-26T01:59:57Z,2021,2,0,330.0833,330.0833,79.728,11.014,1003.3,1.34,-999.0,yes,yes,no,300234068341200,BD2GHI,AOML,ALLIANCE,North
2021-11-26T03:01:00Z,2021,3,1,330.1257,330.1257,79.725,11.017,1002.9,1.37,-999.0,yes,yes,no,300234068341200,BD2GHI,AOML,ALLIANCE,North
2021-11-26T04:00:02Z,2021,4,0,330.1667,330.1667,79.721,11.02,1002.3,1.38,-999.0,yes,yes,no,300234068341200,BD2GHI,AOML,ALLIANCE,North
2021-11-26T04:59:57Z,2021,5,0,330.2083,330.2083,79.716,11.02,1002.0,1.32,-999.0,yes,yes,no,300234068341200,BD2GHI,AOML,ALLIANCE,North
2021-11-26T06:00:00Z,2021,6,0,330.25,330.25,79.713,11.031,1001.4,1.3,-999.0,yes,yes,no,300234068341200,BD2GHI,AOML,ALLIANCE,North
2021-11-26T07:01:03Z,2021,7,1,330.2924,330.2924,79.707,11.029,1001.4,1.32,-999.0,yes,yes,no,300234068341200,BD2GHI,AOML,ALLIANCE,North
2021-11-26T07:59:57Z,2021,8,0,330.3333,330.3333,79.704,11.032,1002.7,1.08,-999.0,yes,yes,no,300234068341200,BD2GHI,AOML,ALLIANCE,North
2021-11-26T09:00:00Z,2021,9,0,330.375,330.375,79.702,11.031,1003.1,1.13,-999.0,yes,yes,no,300234068341200,BD2GHI,AOML,ALLIANCE,North
2021-11-26T10:00:02Z,2021,10,0,330.4167,330.4167,79.701,11.033,1003.5,1.13,-999.0,yes,yes,no,300234068341200,BD2GHI,AOML,ALLIANCE,North
2021-11-26T10:59:57Z,2021,11,0,330.4583,330.4583,79.701,11.035,1004.2,1.14,-999.0,yes,yes,no,300234068341200,BD2GHI,AOML,ALLIANCE,North
2021-11-26T12:00:00Z,2021,12,0,330.5,330.5,79.7,11.035,1004.4,1.27,-999.0,yes,yes,no,300234068341200,BD2GHI,AOML,ALLIANCE,North
2021-11-26T13:00:02Z,2021,13,0,330.5417,330.5417,79.7,11.033,1004.9,1.33,-999.0,yes,yes,no,300234068341200,BD2GHI,AOML,ALLIANCE,North
2021-11-26T14:00:57Z,2021,14,1,330.584,330.584,79.7,11.033,1005.1,1.24,-999.0,yes,yes,no,300234068341200,BD2GHI,AOML,ALLIANCE,North
2021-11-26T15:00:00Z,2021,15,0,330.625,330.625,79.699,11.033,1005.3,1.33,-999.0,yes,yes,no,300234068341200,BD2GHI,AOML,ALLIANCE,North
2021-11-26T16:00:02Z,2021,16,0,330.6667,330.6667,79.7,11.033,1005.4,1.3,-999.0,yes,yes,no,300234068341200,BD2GHI,AOML,ALLIANCE,North
2021-11-26T16:59:57Z,2021,17,0,330.7083,330.7083,79.7,11.031,1005.6,1.3,-999.0,yes,yes,no,300234068341200,BD2GHI,AOML,ALLIANCE,North
2021-11-26T18:00:00Z,2021,18,0,330.75,330.75,79.701,11.03,1005.6,1.28,-999.0,yes,yes,no,300234068341200,BD2GHI,AOML,ALLIANCE,North
2021-11-26T19:00:02Z,2021,19,0,330.7917,330.7917,79.702,11.03,1005.4,1.27,-999.0,yes,yes,no,300234068341200,BD2GHI,AOML,ALLIANCE,North
2021-11-26T19:59:57Z,2021,20,0,330.8333,330.8333,79.702,11.03,1005.4,1.29,-999.0,yes,yes,no,300234068341200,BD2GHI,AOML,ALLIANCE,North
2021-11-26T21:00:00Z,2021,21,0,330.875,330.875,79.703,11.033,1010.6,1.25,-999.0,yes,yes,no,300234068341200,BD2GHI,AOML,ALLIANCE,North
2021-11-26T22:00:02Z,2021,22,0,330.9167,330.9167,79.703,11.028,1013.4,1.26,-999.0,yes,yes,no,300234068341200,BD2GHI,AOML,ALLIANCE,North
2021-11-26T22:59:57Z,2021,23,0,330.9583,330.9583,79.704,11.025,1011.1,1.24,-999.0,yes,yes,no,300234068341200,BD2GHI,AOML,ALLIANCE,North
2021-11-27T00:00:00Z,2021,0,0,331.0,331.0,79.705,11.026,1011.6,1.22,-999.0,yes,yes,no,300234068341200,BD2GHI,AOML,ALLIANCE,North
2021-11-27T01:00:02Z,2021,1,0,331.0417,331.0417,79.705,11.024,1009.6,1.23,-999.0,yes,yes,no,300234068341200,BD2GHI,AOML,ALLIANCE,North
2021-11-27T01:59:57Z,2021,2,0,331.0833,331.0833,79.704,11.025,1009.6,1.21,-999.0,yes,yes,no,300234068341200,BD2GHI,AOML,ALLIANCE,North
2021-11-27T03:00:00Z,2021,3,0,331.125,331.125,79.704,11.025,1010.0,1.2,-999.0,yes,yes,no,300234068341200,BD2GHI,AOML,ALLIANCE,North
2021-11-27T04:00:02Z,2021,4,0,331.1667,331.1667,79.704,11.025,1006.3,1.24,-999.0,yes,yes,no,300234068341200,BD2GHI,AOML,ALLIANCE,North
2021-11-27T04:59:57Z,2021,5,0,331.2083,331.2083,79.704,11.024,1002.0,1.27,-999.0,yes,yes,no,300234068341200,BD2GHI,AOML,ALLIANCE,North
2021-11-27T06:00:00Z,2021,6,0,331.25,331.25,79.704,11.024,1002.3,1.27,-999.0,yes,yes,no,300234068341200,BD2GHI,AOML,ALLIANCE,North
2021-11-27T07:00:02Z,2021,7,0,331.2917,331.2917,79.704,11.024,1002.9,1.2,-999.0,yes,yes,no,300234068341200,BD2GHI,AOML,ALLIANCE,North
2021-11-27T07:59:57Z,2021,8,0,331.3333,331.3333,79.704,11.026,1003.4,1.18,-999.0,yes,yes,no,300234068341200,BD2GHI,AOML,ALLIANCE,North
2021-11-27T09:00:00Z,2021,9,0,331.375,331.375,79.705,11.029,1004.1,1.18,-999.0,yes,yes,no,300234068341200,BD2GHI,AOML,ALLIANCE,North
2021-11-27T10:00:02Z,2021,10,0,331.4167,331.4167,79.705,11.028,1004.8,1.21,-999.0,yes,yes,no,300234068341200,BD2GHI,AOML,ALLIANCE,North
2021-11-27T10:59:57Z,2021,11,0,331.4583,331.4583,79.706,11.028,1006.0,1.22,-999.0,yes,yes,no,300234068341200,BD2GHI,AOML,ALLIANCE,North
2021-11-27T13:00:02Z,2021,13,0,331.5417,331.5417,79.707,11.023,1007.0,1.18,-999.0,yes,yes,no,300234068341200,BD2GHI,AOML,ALLIANCE,North
2021-11-27T13:59:57Z,2021,14,0,331.5833,331.5833,79.707,11.022,1007.4,1.16,-999.0,yes,yes,no,300234068341200,BD2GHI,AOML,ALLIANCE,North
2021-11-27T15:00:00Z,2021,15,0,331.625,331.625,79.707,11.019,1007.6,1.12,-999.0,yes,yes,no,300234068341200,BD2GHI,AOML,ALLIANCE,North
2021-11-27T16:00:02Z,2021,16,0,331.6667,331.6667,79.707,11.019,1007.9,1.14,-999.0,yes,yes,no,300234068341200,BD2GHI,AOML,ALLIANCE,North
2021-11-27T16:59:57Z,2021,17,0,331.7083,331.7083,79.707,11.019,1008.3,1.18,-999.0,yes,yes,no,300234068341200,BD2GHI,AOML,ALLIANCE,North
2021-11-27T18:00:00Z,2021,18,0,331.75,331.75,79.707,11.021,1008.6,1.19,-999.0,yes,yes,no,300234068341200,BD2GHI,AOML,ALLIANCE,North
2021-11-27T19:00:02Z,2021,19,0,331.7917,331.7917,79.707,11.021,1008.7,1.2,-999.0,yes,yes,no,300234068341200,BD2GHI,AOML,ALLIANCE,North
2021-11-27T19:59:57Z,2021,20,0,331.8333,331.8333,79.707,11.023,1009.0,1.2,-999.0,yes,yes,no,300234068341200,BD2GHI,AOML,ALLIANCE,North
2021-11-27T21:00:00Z,2021,21,0,331.875,331.875,79.707,11.02,1009.0,1.16,-999.0,yes,yes,no,300234068341200,BD2GHI,AOML,ALLIANCE,North
2021-11-27T22:00:02Z,2021,22,0,331.9167,331.9167,79.707,11.022,1008.7,1.14,-999.0,yes,yes,no,300234068341200,BD2GHI,AOML,ALLIANCE,North
2021-11-27T22:59:57Z,2021,23,0,331.9583,331.9583,79.707,11.014,1007.8,1.14,-999.0,yes,yes,no,300234068341200,BD2GHI,AOML,ALLIANCE,North
2021-11-28T00:00:00Z,2021,0,0,332.0,332.0,79.709,11.017,1007.7,1.13,-999.0,yes,yes,no,300234068341200,BD2GHI,AOML,ALLIANCE,North
2021-11-28T01:00:02Z,2021,1,0,332.0417,332.0417,79.707,11.02,1007.8,1.14,-999.0,yes,yes,no,300234068341200,BD2GHI,AOML,ALLIANCE,North
2021-11-28T01:59:57Z,2021,2,0,332.0833,332.0833,79.707,11.02,1006.2,1.14,-999.0,yes,yes,no,300234068341200,BD2GHI,AOML,ALLIANCE,North
2021-11-28T03:00:00Z,2021,3,0,332.125,332.125,79.707,11.02,1006.8,1.16,-999.0,yes,yes,no,300234068341200,BD2GHI,AOML,ALLIANCE,North
2021-11-28T04:00:02Z,2021,4,0,332.1667,332.1667,79.706,11.016,1008.6,1.17,-999.0,yes,yes,no,300234068341200,BD2GHI,AOML,ALLIANCE,North
2021-11-28T04:59:57Z,2021,5,0,332.2083,332.2083,79.706,11.019,1008.3,1.14,-999.0,yes,yes,no,300234068341200,BD2GHI,AOML,ALLIANCE,North
2021-11-28T06:00:00Z,2021,6,0,332.25,332.25,79.707,11.019,1008.1,1.12,-999.0,yes,yes,no,300234068341200,BD2GHI,AOML,ALLIANCE,North
2021-11-28T07:00:02Z,2021,7,0,332.2917,332.2917,79.706,11.017,1009.4,1.1,-999.0,yes,yes,no,300234068341200,BD2GHI,AOML,ALLIANCE,North
2021-11-28T07:59:57Z,2021,8,0,332.3333,332.3333,79.707,11.018,1008.4,1.05,-999.0,yes,yes,no,300234068341200,BD2GHI,AOML,ALLIANCE,North
2021-11-28T09:00:00Z,2021,9,0,332.375,332.375,79.707,11.021,1007.8,1.01,-999.0,yes,yes,no,300234068341200,BD2GHI,AOML,ALLIANCE,North
2021-11-28T10:00:02Z,2021,10,0,332.4167,332.4167,79.707,11.024,1011.6,1.05,-999.0,yes,yes,no,300234068341200,BD2GHI,AOML,ALLIANCE,North
2021-11-28T10:59:57Z,2021,11,0,332.4583,332.4583,79.708,11.021,1013.1,1.06,-999.0,yes,yes,no,300234068341200,BD2GHI,AOML,ALLIANCE,North
2021-11-28T13:00:02Z,2021,13,0,332.5417,332.5417,79.708,11.023,1010.1,1.11,-999.0,yes,yes,no,300234068341200,BD2GHI,AOML,ALLIANCE,North
2021-11-28T13:59:57Z,2021,14,0,332.5833,332.5833,79.707,11.018,1009.9,1.15,-999.0,yes,yes,no,300234068341200,BD2GHI,AOML,ALLIANCE,North
2021-11-28T15:00:00Z,2021,15,0,332.625,332.625,79.708,11.018,1010.2,1.15,-999.0,yes,yes,no,300234068341200,BD2GHI,AOML,ALLIANCE,North
2021-11-28T16:00:02Z,2021,16,0,332.6667,332.6667,79.71,11.015,1010.4,1.11,-999.0,yes,yes,no,300234068341200,BD2GHI,AOML,ALLIANCE,North
2021-11-28T16:59:57Z,2021,17,0,332.7083,332.7083,79.71,11.015,1010.2,1.09,-999.0,yes,yes,no,300234068341200,BD2GHI,AOML,ALLIANCE,North
2021-11-28T18:01:00Z,2021,18,1,332.7507,332.7507,79.71,11.015,1010.4,1.14,-999.0,yes,yes,no,300234068341200,BD2GHI,AOML,ALLIANCE,North
2021-11-28T19:00:02Z,2021,19,0,332.7917,332.7917,79.71,11.015,1010.5,1.05,-999.0,yes,yes,no,300234068341200,BD2GHI,AOML,ALLIANCE,North
2021-11-28T19:59:57Z,2021,20,0,332.8333,332.8333,79.71,11.015,1010.7,1.03,-999.0,yes,yes,no,300234068341200,BD2GHI,AOML,ALLIANCE,North
2021-11-28T21:00:00Z,2021,21,0,332.875,332.875,79.71,11.015,1010.7,0.95,-999.0,yes,yes,no,300234068341200,BD2GHI,AOML,ALLIANCE,North
2021-11-28T22:00:02Z,2021,22,0,332.9167,332.9167,79.71,11.015,1010.7,0.99,-999.0,yes,yes,no,300234068341200,BD2GHI,AOML,ALLIANCE,North
2021-11-28T22:59:57Z,2021,23,0,332.9583,332.9583,79.711,11.015,1010.9,1.02,-999.0,yes,yes,no,300234068341200,BD2GHI,AOML,ALLIANCE,North
2021-11-29T00:00:00Z,2021,0,0,333.0,333.0,79.711,11.015,1010.9,1.02,-999.0,yes,yes,no,300234068341200,BD2GHI,AOML,ALLIANCE,North
2021-11-29T01:00:02Z,2021,1,0,333.0417,333.0417,79.711,11.014,1011.0,1.0,-999.0,yes,yes,no,300234068341200,BD2GHI,AOML,ALLIANCE,North
2021-11-29T01:59:57Z,2021,2,0,333.0833,333.0833,79.711,11.016,1011.1,0.97,-999.0,yes,yes,no,300234068341200,BD2GHI,AOML,ALLIANCE,North
2021-11-29T03:00:00Z,2021,3,0,333.125,333.125,79.71,11.015,1011.4,0.96,-999.0,yes,yes,no,300234068341200,BD2GHI,AOML,ALLIANCE,North
2021-11-29T04:00:02Z,2021,4,0,333.1667,333.1667,79.71,11.015,1011.6,0.99,-999.0,yes,yes,no,300234068341200,BD2GHI,AOML,ALLIANCE,North
2021-11-29T04:59:57Z,2021,5,0,333.2083,333.2083,79.711,11.015,1011.5,0.98,-999.0,yes,yes,no,300234068341200,BD2GHI,AOML,ALLIANCE,North
2021-11-29T06:00:00Z,2021,6,0,333.25,333.25,79.71,11.016,1011.6,0.97,-999.0,yes,yes,no,300234068341200,BD2GHI,AOML,ALLIANCE,North
2021-11-29T07:00:02Z,2021,7,0,333.2917,333.2917,79.71,11.015,1011.8,0.97,-999.0,yes,yes,no,300234068341200,BD2GHI,AOML,ALLIANCE,North
2021-11-29T07:59:57Z,2021,8,0,333.3333,333.3333,79.71,11.015,1012.2,1.0,-999.0,yes,yes,no,300234068341200,BD2GHI,AOML,ALLIANCE,North
2021-11-29T09:00:00Z,2021,9,0,333.375,333.375,79.71,11.016,1012.5,0.99,-999.0,yes,yes,no,300234068341200,BD2GHI,AOML,ALLIANCE,North
2021-11-29T10:00:02Z,2021,10,0,333.4167,333.4167,79.71,11.016,1012.5,0.99,-999.0,yes,yes,no,300234068341200,BD2GHI,AOML,ALLIANCE,North
2021-11-29T10:59:57Z,2021,11,0,333.4583,333.4583,79.71,11.015,1012.2,0.99,-999.0,yes,yes,no,300234068341200,BD2GHI,AOML,ALLIANCE,North
2021-11-29T13:00:02Z,2021,13,0,333.5417,333.5417,79.71,11.016,1011.9,0.9,-999.0,yes,yes,no,300234068341200,BD2GHI,AOML,ALLIANCE,North
2021-11-29T13:59:57Z,2021,14,0,333.5833,333.5833,79.71,11.014,1011.7,0.91,-999.0,yes,yes,no,300234068341200,BD2GHI,AOML,ALLIANCE,North
2021-11-29T15:00:00Z,2021,15,0,333.625,333.625,79.71,11.015,1011.6,0.98,-999.0,yes,yes,no,300234068341200,BD2GHI,AOML,ALLIANCE,North
2021-11-29T16:00:02Z,2021,16,0,333.6667,333.6667,79.71,11.015,1011.2,1.04,-999.0,yes,yes,no,300234068341200,BD2GHI,AOML,ALLIANCE,North
2021-11-29T16:59:57Z,2021,17,0,333.7083,333.7083,79.711,11.015,1011.2,1.02,-999.0,yes,yes,no,300234068341200,BD2GHI,AOML,ALLIANCE,North
2021-11-29T18:00:00Z,2021,18,0,333.75,333.75,79.71,11.015,1011.2,1.03,-999.0,yes,yes,no,300234068341200,BD2GHI,AOML,ALLIANCE,North
2021-11-29T19:00:02Z,2021,19,0,333.7917,333.7917,79.71,11.015,1011.1,1.01,-999.0,yes,yes,no,300234068341200,BD2GHI,AOML,ALLIANCE,North
2021-11-29T19:59:57Z,2021,20,0,333.8333,333.8333,79.711,11.015,1010.9,1.0,-999.0,yes,yes,no,300234068341200,BD2GHI,AOML,ALLIANCE,North
2021-11-29T21:00:00Z,2021,21,0,333.875,333.875,79.71,11.015,1010.6,1.0,-999.0,yes,yes,no,300234068341200,BD2GHI,AOML,ALLIANCE,North
2021-11-29T22:00:02Z,2021,22,0,333.9167,333.9167,79.711,11.015,1010.3,1.01,-999.0,yes,yes,no,300234068341200,BD2GHI,AOML,ALLIANCE,North
2021-11-29T22:59:57Z,2021,23,0,333.9583,333.9583,79.71,11.015,1010.1,1.0,-999.0,yes,yes,no,300234068341200,BD2GHI,AOML,ALLIANCE,North
2021-11-30T00:00:00Z,2021,0,0,334.0,334.0,79.71,11.015,1010.0,0.91,-999.0,yes,yes,no,300234068341200,BD2GHI,AOML,ALLIANCE,North
2021-11-30T01:00:02Z,2021,1,0,334.0417,334.0417,79.71,11.015,1010.1,0.93,-999.0,yes,yes,no,300234068341200,BD2GHI,AOML,ALLIANCE,North
2021-11-30T01:59:57Z,2021,2,0,334.0833,334.0833,79.708,11.017,1010.0,0.9,-999.0,yes,yes,no,300234068341200,BD2GHI,AOML,ALLIANCE,North
2021-11-30T03:00:00Z,2021,3,0,334.125,334.125,79.71,11.017,1009.6,0.44,-999.0,yes,yes,no,300234068341200,BD2GHI,AOML,ALLIANCE,North
2021-11-30T04:00:02Z,2021,4,0,334.1667,334.1667,79.71,11.015,1009.7,0.52,-999.0,yes,yes,no,300234068341200,BD2GHI,AOML,ALLIANCE,North
2021-11-30T04:59:57Z,2021,5,0,334.2083,334.2083,79.71,11.015,1009.5,0.71,-999.0,yes,yes,no,300234068341200,BD2GHI,AOML,ALLIANCE,North
2021-11-30T06:00:00Z,2021,6,0,334.25,334.25,79.71,11.015,1009.6,0.66,-999.0,yes,yes,no,300234068341200,BD2GHI,AOML,ALLIANCE,North
2021-11-30T07:00:02Z,2021,7,0,334.2917,334.2917,79.71,11.015,1009.7,0.55,-999.0,yes,yes,no,300234068341200,BD2GHI,AOML,ALLIANCE,North
2021-11-30T07:59:57Z,2021,8,0,334.3333,334.3333,79.71,11.015,1009.7,0.77,-999.0,yes,yes,no,300234068341200,BD2GHI,AOML,ALLIANCE,North
2021-11-30T09:00:00Z,2021,9,0,334.375,334.375,79.71,11.015,1009.8,0.74,-999.0,yes,yes,no,300234068341200,BD2GHI,AOML,ALLIANCE,North
2021-11-30T10:00:02Z,2021,10,0,334.4167,334.4167,79.71,11.015,1009.7,0.57,-999.0,yes,yes,no,300234068341200,BD2GHI,AOML,ALLIANCE,North
2021-11-30T12:00:00Z,2021,12,0,334.5,334.5,79.711,11.016,1009.7,0.77,-999.0,yes,yes,no,300234068341200,BD2GHI,AOML,ALLIANCE,North
2021-11-30T13:00:02Z,2021,13,0,334.5417,334.5417,79.711,11.015,1009.6,0.86,-999.0,yes,yes,no,300234068341200,BD2GHI,AOML,ALLIANCE,North
2021-11-30T13:59:57Z,2021,14,0,334.5833,334.5833,79.711,11.014,1009.7,0.82,-999.0,yes,yes,no,300234068341200,BD2GHI,AOML,ALLIANCE,North
2021-11-30T15:00:00Z,2021,15,0,334.625,334.625,79.71,11.014,1009.7,0.91,-999.0,yes,yes,no,300234068341200,BD2GHI,AOML,ALLIANCE,North
2021-11-30T16:00:02Z,2021,16,0,334.6667,334.6667,79.711,11.016,1010.0,0.93,-999.0,yes,yes,no,300234068341200,BD2GHI,AOML,ALLIANCE,North
2021-11-30T16:59:57Z,2021,17,0,334.7083,334.7083,79.711,11.014,1010.2,0.88,-999.0,yes,yes,no,300234068341200,BD2GHI,AOML,ALLIANCE,North
2021-11-30T18:00:00Z,2021,18,0,334.75,334.75,79.71,11.014,1010.5,0.78,-999.0,yes,yes,no,300234068341200,BD2GHI,AOML,ALLIANCE,North
2021-11-30T19:00:02Z,2021,19,0,334.7917,334.7917,79.711,11.016,1010.6,0.77,-999.0,yes,yes,no,300234068341200,BD2GHI,AOML,ALLIANCE,North
2021-11-30T19:59:57Z,2021,20,0,334.8333,334.8333,79.711,11.015,1011.0,0.75,-999.0,yes,yes,no,300234068341200,BD2GHI,AOML,ALLIANCE,North
2021-11-30T21:00:00Z,2021,21,0,334.875,334.875,79.711,11.016,1011.5,0.69,-999.0,yes,yes,no,300234068341200,BD2GHI,AOML,ALLIANCE,North
2021-11-30T22:00:02Z,2021,22,0,334.9167,334.9167,79.711,11.015,1011.9,0.71,-999.0,yes,yes,no,300234068341200,BD2GHI,AOML,ALLIANCE,North
2021-11-30T22:59:57Z,2021,23,0,334.9583,334.9583,79.71,11.017,1012.0,0.75,-999.0,yes,yes,no,300234068341200,BD2GHI,AOML,ALLIANCE,North
2021-12-01T00:00:00Z,2021,0,0,335.0,335.0,79.71,11.014,1012.5,0.63,-999.0,yes,yes,no,300234068341200,BD2GHI,AOML,ALLIANCE,North
2021-12-01T01:00:02Z,2021,1,0,335.0417,335.0417,79.711,11.014,1012.9,0.67,-999.0,yes,yes,no,300234068341200,BD2GHI,AOML,ALLIANCE,North
2021-12-01T01:59:57Z,2021,2,0,335.0833,335.0833,79.71,11.015,1013.4,0.71,-999.0,yes,yes,no,300234068341200,BD2GHI,AOML,ALLIANCE,North
2021-12-01T03:00:00Z,2021,3,0,335.125,335.125,79.71,11.015,1014.0,0.66,-999.0,yes,yes,no,300234068341200,BD2GHI,AOML,ALLIANCE,North
2021-12-01T04:00:02Z,2021,4,0,335.1667,335.1667,79.71,11.015,1013.6,0.61,-999.0,yes,yes,no,300234068341200,BD2GHI,AOML,ALLIANCE,North
2021-12-01T04:59:57Z,2021,5,0,335.2083,335.2083,79.711,11.016,1011.3,0.62,-999.0,yes,yes,no,300234068341200,BD2GHI,AOML,ALLIANCE,North
2021-12-01T06:00:00Z,2021,6,0,335.25,335.25,79.71,11.017,1009.4,0.64,-999.0,yes,yes,no,300234068341200,BD2GHI,AOML,ALLIANCE,North
2021-12-01T07:00:02Z,2021,7,0,335.2917,335.2917,79.71,11.016,1012.1,0.64,-999.0,yes,yes,no,300234068341200,BD2GHI,AOML,ALLIANCE,North
2021-12-01T07:59:57Z,2021,8,0,335.3333,335.3333,79.711,11.016,1016.1,0.63,-999.0,yes,yes,no,300234068341200,BD2GHI,AOML,ALLIANCE,North
2021-12-01T09:00:00Z,2021,9,0,335.375,335.375,79.711,11.014,1015.8,0.62,-999.0,yes,yes,no,300234068341200,BD2GHI,AOML,ALLIANCE,North